This is the latest recevied weather packets stored in our database for station/object KO4YAW. If no packets are shown the sender has not sent any weather packets the latest 10 day(s).
| Time | Temp. | Humidity | Pressure | Rain* | Wind** | Luminosity | Snow |
|---|---|---|---|---|---|---|---|
| 1788401029 | 24.44° C | 36% | 1016.7 hPa | 0 mm | - | 0 W/m² | - |
| 1788400129 | 25.56° C | 37% | 1016.5 hPa | 0 mm | - | 0 W/m² | - |
| 1788399229 | 26.67° C | 32% | 1016.5 hPa | 0 mm | - | 3 W/m² | - |
| 1788398329 | 27.22° C | 31% | 1016.3 hPa | 0 mm | - | 8 W/m² | - |
| 1788397429 | 28.33° C | 30% | 1016.3 hPa | 0 mm | - | 17 W/m² | - |
| 1788396529 | 30.56° C | 27% | 1016 hPa | 0 mm | - | 29 W/m² | - |
| 1788395629 | 31.67° C | 26% | 1015.9 hPa | 0 mm | - | 98 W/m² | - |
| 1788394729 | 31.67° C | 26% | 1016 hPa | 0 mm | - | 142 W/m² | - |
| 1788393829 | 31.67° C | 26% | 1015.9 hPa | 0 mm | - | 205 W/m² | - |
| 1788392929 | 31.11° C | 25% | 1015.9 hPa | 0 mm | - | 134 W/m² | - |
| 1788392029 | 31.67° C | 25% | 1015.9 hPa | 0 mm | - | 97 W/m² | - |
| 1788391129 | 31.67° C | 24% | 1015.9 hPa | 0 mm | - | 344 W/m² | - |
| 1788390229 | 31.67° C | 23% | 1015.9 hPa | 0 mm | - | 352 W/m² | - |
| 1788389329 | 32.78° C | 22% | 1015.9 hPa | 0 mm | - | 449 W/m² | - |
| 1788388429 | 31.67° C | 23% | 1016 hPa | 0 mm | - | 517 W/m² | - |
| 1788387529 | 32.22° C | 22% | 1016 hPa | 0 mm | - | 568 W/m² | - |
| 1788386629 | 32.22° C | 24% | 1016.3 hPa | 0 mm | - | 610 W/m² | - |
| 1788385729 | 32.22° C | 23% | 1016.5 hPa | 0 mm | - | 659 W/m² | - |
| 1788384829 | 32.78° C | 22% | 1016.5 hPa | 0 mm | - | 716 W/m² | - |
| 1788383929 | 33.33° C | 20% | 1016.6 hPa | 0 mm | - | 755 W/m² | - |
| 1788383029 | 32.22° C | 21% | 1016.9 hPa | 0 mm | - | 759 W/m² | - |
| 1788382129 | 32.22° C | 21% | 1017.1 hPa | 0 mm | - | 831 W/m² | - |
| 1788381229 | 31.67° C | 21% | 1017.3 hPa | 0 mm | - | 870 W/m² | - |
| 1788380329 | 31.67° C | 21% | 1017.6 hPa | 0 mm | - | 899 W/m² | - |
| 1788379429 | 31.11° C | 21% | 1017.8 hPa | 0 mm | - | 887 W/m² | - |
* Rain since midnight (hover to see other rain measurements)
** Current wind speed in m/s (hover to see current wind gust speed)